Location: Mountain View
(37.3861°N, 122.0839°W)
Time: 22:14:29
(UTC-07:00)

ISS - Visible Passes

Search period start: 20 May 2026 00:00
Search period end: 30 May 2026 00:00
Orbit: 414 x 424 km, 51.6° (Epoch: 20 May)

Date Brightness Start Highest point End Pass type
(mag) Time Alt. Az. Time Alt. Az. Time Alt. Az.
20 May -0.8 21:24:27 10° N 21:24:58 10° NNE 21:25:28 10° NNE visible
20 May -1.8 22:59:20 10° NW 23:01:20 28° N 23:01:20 28° N visible
21 May -2.1 22:11:50 10° NNW 22:14:40 25° NNE 22:15:19 23° NE visible
22 May -1.5 21:24:26 10° NNW 21:26:46 18° NNE 21:29:07 10° ENE visible
22 May -1.8 23:00:32 10° NW 23:02:15 27° WNW 23:02:15 27° WNW visible
23 May -3.8 22:12:48 10° NW 22:16:07 67° NE 22:16:17 66° ENE visible
24 May -2.8 21:25:10 10° NW 21:28:20 38° NE 21:30:21 19° E visible
24 May -1.1 23:02:27 10° W 23:03:17 14° W 23:03:17 14° W visible
25 May -2.8 22:14:13 10° WNW 22:17:17 34° SW 22:17:23 34° SW visible
26 May -3.6 21:26:17 10° NW 21:29:35 66° SW 21:31:33 22° SE visible
27 May -1.1 22:17:16 10° WSW 22:18:11 11° SW 22:18:42 11° SW visible
28 May -1.7 21:28:05 10° W 21:30:35 20° SW 21:32:58 10° S visible
